| time (UTC) | temp C | wind direction | speed KPH | gust KPH | rain 1hr cm | rain 24hr cm | rain mn cm | humidity % | barometer mb |
| 20260505124233 | 32 | 292 | 8.0 | 16.1 | 0.00 | 0.00 | 0.00 | 24 | 1013.5 |
| 20260505123733 | 32 | 202 | 6.4 | 19.3 | 0.00 | 0.00 | 0.00 | 24 | 1058.5 |
| 20260505123233 | 33 | 225 | 11.3 | 14.5 | 0.00 | 0.00 | 0.00 | 24 | 974.7 |
| 20260505122819 | 33 | 180 | 4.8 | 14.5 | 0.00 | 0.00 | 0.00 | 24 | 1016.7 |
| 20260505122733 | 33 | 180 | 4.8 | 14.5 | 0.00 | 0.00 | 0.00 | 24 | 1016.7 |
| 20260505122233 | 33 | 225 | 6.4 | 12.9 | 0.00 | 0.00 | 0.00 | 24 | 1046.0 |
| 20260505121733 | 33 | 112 | 12.9 | 19.3 | 0.00 | 0.00 | 0.00 | 24 | 1090.9 |
| 20260505121232 | 33 | 157 | 19.3 | 19.3 | 0.00 | 0.00 | 0.00 | 25 | 1021.2 |
| 20260505120733 | 33 | 135 | 3.2 | 11.3 | 0.00 | 0.00 | 0.00 | 25 | 929.8 |
| 20260505120233 | 32 | 247 | 11.3 | 22.5 | 0.00 | 0.00 | 0.00 | 25 | 1084.6 |
| 20260505115733 | 32 | 157 | 14.5 | 20.9 | 0.00 | 0.00 | 0.00 | 26 | 1085.0 |
| 20260505115233 | 32 | 157 | 8.0 | 14.5 | 0.00 | 0.00 | 0.00 | 26 | 1016.6 |
| 20260505114733 | 32 | 202 | 11.3 | 19.3 | 0.00 | 0.00 | 0.00 | 26 | 1007.3 |
| 20260505114233 | 32 | 247 | 9.7 | 12.9 | 0.00 | 0.00 | 0.00 | 26 | 1081.5 |
| 20260505113932 | 32 | 202 | 6.4 | 9.7 | 0.00 | 0.00 | 0.00 | 26 | 1067.9 |
| 20260505113733 | 32 | 270 | 6.4 | 9.7 | 0.00 | 0.00 | 0.00 | 27 | 1061.6 |
| 20260505113233 | 32 | 135 | 3.2 | 9.7 | 0.00 | 0.00 | 0.00 | 26 | 1009.1 |
| 20260505112733 | 33 | 180 | 4.8 | 19.3 | 0.00 | 0.00 | 0.00 | 27 | 1100.3 |
| 20260505112233 | 33 | 202 | 9.7 | 12.9 | 0.00 | 0.00 | 0.00 | 27 | 1037.1 |
| 20260505111733 | 32 | 180 | 11.3 | 11.3 | 0.00 | 0.00 | 0.00 | 28 | 1036.5 |
| 20260505111233 | 32 | 270 | 3.2 | 12.9 | 0.00 | 0.00 | 0.00 | 28 | 1045.9 |
| 20260505110733 | 32 | 202 | 3.2 | 11.3 | 0.00 | 0.00 | 0.00 | 28 | 971.6 |
| 20260505110632 | 32 | 202 | 4.8 | 12.9 | 0.00 | 0.00 | 0.00 | 27 | 1013.5 |
| 20260505110233 | 32 | 270 | 6.4 | 14.5 | 0.00 | 0.00 | 0.00 | 28 | 1001.0 |
| 20260505101733 | 31 | 247 | 8.0 | 12.9 | 0.00 | 0.00 | 0.00 | 29 | 1058.7 |
| 20260505101233 | 32 | 45 | 3.2 | 8.0 | 0.00 | 0.00 | 0.00 | 29 | 1049.1 |
| 20260505100733 | 32 | 45 | 4.8 | 8.0 | 0.00 | 0.00 | 0.00 | 30 | 1004.1 |
| 20260505100233 | 32 | 180 | 4.8 | 8.0 | 0.00 | 0.00 | 0.00 | 30 | 948.0 |
| 20260505100032 | 32 | 135 | 3.2 | 8.0 | 0.00 | 0.00 | 0.00 | 31 | 1067.9 |
| 20260505095733 | 31 | 202 | 4.8 | 11.3 | 0.00 | 0.00 | 0.00 | 31 | 1015.2 |
| 20260505095233 | 31 | 180 | 6.4 | 12.9 | 0.00 | 0.00 | 0.00 | 31 | 949.7 |
| 20260505094733 | 31 | 202 | 8.0 | 8.0 | 0.00 | 0.00 | 0.00 | 32 | 959.1 |
| 20260505094233 | 31 | 247 | 0.0 | 9.7 | 0.00 | 0.00 | 0.00 | 32 | 999.2 |
| 20260505093733 | 31 | 225 | 3.2 | 6.4 | 0.00 | 0.00 | 0.00 | 32 | 1044.4 |
| 20260505093233 | 31 | 337 | 3.2 | 12.9 | 0.00 | 0.00 | 0.00 | 31 | 1014.8 |
| 20260505092732 | 31 | 247 | 6.4 | 9.7 | 0.00 | 0.00 | 0.00 | 32 | 1072.1 |
| 20260505092233 | 31 | 157 | 4.8 | 9.7 | 0.00 | 0.00 | 0.00 | 32 | 1056.7 |
| 20260505091733 | 31 | 202 | 4.8 | 6.4 | 0.00 | 0.00 | 0.00 | 31 | 962.3 |
| 20260505091233 | 31 | 157 | 6.4 | 11.3 | 0.00 | 0.00 | 0.00 | 31 | 1087.8 |
| 20260505090733 | 32 | 157 | 9.7 | 9.7 | 0.00 | 0.00 | 0.00 | 30 | 1053.4 |
| 20260505090233 | 32 | 135 | 3.2 | 14.5 | 0.00 | 0.00 | 0.00 | 29 | 1021.2 |
| 20260505085733 | 32 | 157 | 6.4 | 11.3 | 0.00 | 0.00 | 0.00 | 30 | 1094.0 |
| 20260505085432 | 32 | 157 | 9.7 | 11.3 | 0.00 | 0.00 | 0.00 | 30 | 1046.1 |
| 20260505085233 | 32 | 135 | 4.8 | 9.7 | 0.00 | 0.00 | 0.00 | 30 | 956.0 |
| 20260505084733 | 32 | 135 | 6.4 | 11.3 | 0.00 | 0.00 | 0.00 | 30 | 1076.0 |
| 20260505084233 | 32 | 0 | 1.6 | 8.0 | 0.00 | 0.00 | 0.00 | 30 | 1090.9 |
| 20260505083733 | 32 | 135 | 0.0 | 11.3 | 0.00 | 0.00 | 0.00 | 31 | 1041.9 |
| 20260505083233 | 32 | 135 | 3.2 | 11.3 | 0.00 | 0.00 | 0.00 | 31 | 1090.9 |
| 20260505082733 | 32 | 135 | 1.6 | 9.7 | 0.00 | 0.00 | 0.00 | 31 | 997.4 |
| 20260505082233 | 32 | 157 | 4.8 | 8.0 | 0.00 | 0.00 | 0.00 | 32 | 920.7 |
| 20260505082132 | 32 | 180 | 1.6 | 6.4 | 0.00 | 0.00 | 0.00 | 32 | 1056.4 |
| 20260505081733 | 32 | 0 | 1.6 | 3.2 | 0.00 | 0.00 | 0.00 | 31 | 1101.1 |
| 20260505081233 | 32 | 157 | 3.2 | 6.4 | 0.00 | 0.00 | 0.00 | 31 | 987.0 |
| 20260505080733 | 33 | 315 | 0.0 | 3.2 | 0.00 | 0.00 | 0.00 | 30 | 927.9 |
| 20260505080233 | 34 | 67 | 4.8 | 8.0 | 0.00 | 0.00 | 0.00 | 30 | 980.9 |
| 20260505075733 | 35 | 157 | 1.6 | 6.4 | 0.00 | 0.00 | 0.00 | 30 | 1018.1 |
| 20260505075234 | 34 | 202 | 3.2 | 8.0 | 0.00 | 0.00 | 0.00 | 30 | 1015.5 |
| 20260505074832 | 34 | 157 | 3.2 | 8.0 | 0.00 | 0.00 | 0.00 | 31 | 1019.8 |
| 20260505074733 | 33 | 135 | 4.8 | 6.4 | 0.00 | 0.00 | 0.00 | 31 | 1013.5 |
| 20260505074233 | 33 | 180 | 0.0 | 3.2 | 0.00 | 0.00 | 0.00 | 31 | 970.1 |
| 20260505073733 | 33 | 157 | 1.6 | 4.8 | 0.00 | 0.00 | 0.00 | 31 | 1055.3 |
| 20260505073233 | 33 | 112 | 4.8 | 8.0 | 0.00 | 0.00 | 0.00 | 31 | 952.9 |
| 20260505072733 | 33 | 157 | 4.8 | 8.0 | 0.00 | 0.00 | 0.00 | 31 | 1084.7 |
| 20260505072233 | 32 | 0 | 1.6 | 4.8 | 0.00 | 0.00 | 0.00 | 32 | 1009.1 |
| 20260505071741 | 33 | 180 | 3.2 | 8.0 | 0.00 | 0.00 | 0.00 | 31 | 1064.8 |
| 20260505071733 | 33 | 180 | 3.2 | 8.0 | 0.00 | 0.00 | 0.00 | 31 | 1064.8 |
| 20260505071532 | 33 | 135 | 4.8 | 8.0 | 0.00 | 0.00 | 0.00 | 31 | 974.6 |
| 20260505071233 | 33 | 22 | 1.6 | 6.4 | 0.00 | 0.00 | 0.00 | 32 | 1052.2 |
| 20260505070733 | 33 | 90 | 4.8 | 8.0 | 0.00 | 0.00 | 0.00 | 32 | 1036.7 |
| 20260505070233 | 32 | 157 | 1.6 | 4.8 | 0.00 | 0.00 | 0.00 | 34 | 1058.4 |
| 20260505065733 | 32 | 0 | 1.6 | 6.4 | 0.00 | 0.00 | 0.00 | 34 | 1020.1 |
| 20260505065233 | 31 | 67 | 1.6 | 4.8 | 0.00 | 0.00 | 0.00 | 36 | 1011.1 |
| 20260505064733 | 30 | 67 | 3.2 | 3.2 | 0.00 | 0.00 | 0.00 | 38 | 1010.4 |
| 20260505063959 | 29 | 90 | 3.2 | 8.0 | 0.00 | 0.00 | 0.00 | 40 | 1014.8 |
| 20260505063459 | 28 | 112 | 3.2 | 9.7 | 0.00 | 0.00 | 0.00 | 40 | 1088.4 |
| 20260505063000 | 27 | 45 | 4.8 | 8.0 | 0.00 | 0.00 | 0.00 | 41 | 1033.4 |
| 20260505062459 | 27 | 90 | 0.0 | 6.4 | 0.00 | 0.00 | 0.00 | 43 | 1090.6 |
| 20260505062000 | 26 | 67 | 3.2 | 8.0 | 0.00 | 0.00 | 0.00 | 45 | 1081.5 |
| 20260505061459 | 26 | 90 | 8.0 | 8.0 | 0.00 | 0.00 | 0.00 | 46 | 996.7 |
| 20260505061158 | 25 | 112 | 1.6 | 6.4 | 0.00 | 0.00 | 0.00 | 47 | 1042.8 |
| 20260505061000 | 25 | 0 | 4.8 | 6.4 | 0.00 | 0.00 | 0.00 | 48 | 1001.0 |
| 20260505060500 | 24 | 45 | 3.2 | 8.0 | 0.00 | 0.00 | 0.00 | 51 | 1004.1 |
| 20260505060000 | 22 | 45 | 0.0 | 6.4 | 0.00 | 0.00 | 0.00 | 53 | 976.4 |
| 20260505055500 | 21 | 0 | 3.2 | 9.7 | 0.00 | 0.00 | 0.00 | 54 | 1053.0 |
| 20260505054959 | 21 | 45 | 3.2 | 8.0 | 0.00 | 0.00 | 0.00 | 54 | 1056.0 |
| 20260505054459 | 21 | 22 | 0.0 | 6.4 | 0.00 | 0.00 | 0.00 | 57 | 1042.5 |
| 20260505054000 | 20 | 112 | 0.0 | 6.4 | 0.00 | 0.00 | 0.00 | 56 | 1036.6 |
| 20260505053859 | 20 | 90 | 3.2 | 9.7 | 0.00 | 0.00 | 0.00 | 55 | 1044.9 |
| 20260505053500 | 20 | 67 | 4.8 | 9.7 | 0.00 | 0.00 | 0.00 | 54 | 1050.3 |
| 20260505052959 | 21 | 67 | 8.0 | 12.9 | 0.00 | 0.00 | 0.00 | 53 | 995.6 |
| 20260505052500 | 22 | 90 | 11.3 | 12.9 | 0.00 | 0.00 | 0.00 | 51 | 1000.2 |
| 20260505052000 | 22 | 67 | 8.0 | 11.3 | 0.00 | 0.00 | 0.00 | 51 | 1050.0 |
| 20260505051459 | 23 | 90 | 11.3 | 11.3 | 0.00 | 0.00 | 0.00 | 51 | 1049.9 |
| 20260505051000 | 23 | 45 | 8.0 | 8.0 | 0.00 | 0.00 | 0.00 | 52 | 1036.5 |
| 20260505050559 | 22 | 90 | 6.4 | 8.0 | 0.00 | 0.00 | 0.00 | 54 | 1044.8 |
| 20260505050500 | 22 | 45 | 1.6 | 6.4 | 0.00 | 0.00 | 0.00 | 54 | 1041.7 |
| 20260505041500 | 18 | 45 | 1.6 | 4.8 | 0.00 | 0.00 | 0.00 | 69 | 1033.4 |
| 20260505041000 | 17 | 22 | 3.2 | 9.7 | 0.00 | 0.00 | 0.00 | 71 | 1090.9 |
| 20260505040500 | 16 | 67 | 4.8 | 6.4 | 0.00 | 0.00 | 0.00 | 73 | 1049.4 |
| 20260505035959 | 16 | 45 | 3.2 | 8.0 | 0.00 | 0.00 | 0.00 | 75 | 935.6 |
| 20260505035500 | 15 | 0 | 3.2 | 6.4 | 0.00 | 0.00 | 0.00 | 76 | 932.9 |
| 20260505035000 | 14 | 45 | 3.2 | 11.3 | 0.00 | 0.00 | 0.00 | 77 | 1052.2 |
| 20260505034500 | 13 | 337 | 1.6 | 6.4 | 0.00 | 0.00 | 0.00 | 77 | 1016.3 |
| 20260505034000 | 13 | 22 | 1.6 | 4.8 | 0.00 | 0.00 | 0.00 | 76 | 1004.1 |
| 20260505033500 | 12 | 0 | 1.6 | 3.2 | 0.00 | 0.00 | 0.00 | 75 | 985.3 |
| 20260505033000 | 12 | 22 | 3.2 | 4.8 | 0.00 | 0.00 | 0.00 | 75 | 1054.2 |
| 20260505032659 | 12 | 67 | 1.6 | 4.8 | 0.00 | 0.00 | 0.00 | 75 | 974.8 |
| 20260505032500 | 12 | 45 | 3.2 | 3.2 | 0.00 | 0.00 | 0.00 | 75 | 968.4 |
| 20260505032000 | 12 | 45 | 1.6 | 3.2 | 0.00 | 0.00 | 0.00 | 74 | 919.1 |
| 20260505031500 | 12 | 45 | 0.0 | 4.8 | 0.00 | 0.00 | 0.00 | 74 | 1036.5 |
| 20260505031000 | 12 | 22 | 3.2 | 3.2 | 0.00 | 0.00 | 0.00 | 74 | 1036.6 |
| 20260505030500 | 12 | 0 | 1.6 | 4.8 | 0.00 | 0.00 | 0.00 | 74 | 995.0 |
| 20260505030000 | 12 | 45 | 1.6 | 8.0 | 0.00 | 0.00 | 0.00 | 73 | 1007.2 |
| 20260505025500 | 12 | 22 | 4.8 | 4.8 | 0.00 | 0.00 | 0.00 | 73 | 1097.2 |
| 20260505025359 | 12 | 22 | 4.8 | 8.0 | 0.00 | 0.00 | 0.00 | 73 | 984.0 |
| 20260505025000 | 12 | 0 | 8.0 | 8.0 | 0.00 | 0.00 | 0.00 | 72 | 1057.1 |
| 20260505024500 | 12 | 22 | 1.6 | 3.2 | 0.00 | 0.00 | 0.00 | 72 | 1000.2 |
| 20260505024000 | 12 | 22 | 1.6 | 8.0 | 0.00 | 0.00 | 0.00 | 72 | 1060.0 |
| 20260505023500 | 12 | 22 | 3.2 | 6.4 | 0.00 | 0.00 | 0.00 | 72 | 1054.4 |
| 20260505023000 | 12 | 45 | 6.4 | 8.0 | 0.00 | 0.00 | 0.00 | 71 | 1001.0 |
| 20260505022500 | 12 | 45 | 3.2 | 6.4 | 0.00 | 0.00 | 0.00 | 71 | 1084.7 |
| 20260505022059 | 12 | 292 | 6.4 | 6.4 | 0.00 | 0.00 | 0.00 | 70 | 1090.9 |
| 20260505022000 | 12 | 270 | 4.8 | 4.8 | 0.00 | 0.00 | 0.00 | 70 | 1086.5 |
| 20260505021500 | 12 | 247 | 0.0 | 3.2 | 0.00 | 0.00 | 0.00 | 69 | 994.4 |
| 20260505021000 | 12 | 22 | 0.0 | 3.2 | 0.00 | 0.00 | 0.00 | 69 | 1002.0 |
| 20260505020500 | 12 | 90 | 0.0 | 0.0 | 0.00 | 0.00 | 0.00 | 68 | 966.5 |
| 20260505020000 | 13 | 180 | 0.0 | 0.0 | 0.00 | 0.00 | 0.00 | 67 | 922.3 |
| 20260505015500 | 13 | 180 | 0.0 | 0.0 | 0.00 | 0.00 | 0.00 | 67 | 1078.4 |
| 20260505015000 | 13 | 180 | 0.0 | 0.0 | 0.00 | 0.00 | 0.00 | 67 | 973.8 |
| 20260505014759 | 13 | 247 | 0.0 | 0.0 | 0.00 | 0.00 | 0.00 | 67 | 1085.2 |
| 20260505014500 | 13 | 247 | 0.0 | 0.0 | 0.00 | 0.00 | 0.00 | 67 | 1016.6 |
| 20260505014000 | 13 | 202 | 0.0 | 0.0 | 0.00 | 0.00 | 0.00 | 66 | 1052.1 |
| 20260505013500 | 13 | 202 | 0.0 | 0.0 | 0.00 | 0.00 | 0.00 | 66 | 965.4 |
| 20260505013000 | 13 | 270 | 0.0 | 0.0 | 0.00 | 0.00 | 0.00 | 66 | 1023.1 |
| 20260505012500 | 13 | 315 | 0.0 | 0.0 | 0.00 | 0.00 | 0.00 | 66 | 984.1 |
| 20260505012000 | 13 | 45 | 0.0 | 0.0 | 0.00 | 0.00 | 0.00 | 66 | 1002.3 |
| 20260505011459 | 13 | 45 | 0.0 | 0.0 | 0.00 | 0.00 | 0.00 | 66 | 1052.2 |
| 20260505011000 | 13 | 45 | 0.0 | 0.0 | 0.00 | 0.00 | 0.00 | 66 | 1064.8 |
| 20260505010500 | 13 | 22 | 0.0 | 0.0 | 0.00 | 0.00 | 0.00 | 66 | 1055.0 |
| 20260505010001 | 13 | 0 | 0.0 | 0.0 | 0.00 | 0.00 | 0.00 | 67 | 1001.0 |
| 20260505005500 | 13 | 337 | 0.0 | 0.0 | 0.00 | 0.00 | 0.00 | 67 | 1094.7 |
| 20260505005000 | 13 | 337 | 0.0 | 0.0 | 0.00 | 0.00 | 0.00 | 67 | 969.9 |
| 20260505004500 | 13 | 292 | 0.0 | 0.0 | 0.00 | 0.00 | 0.00 | 67 | 997.0 |
| 20260505004159 | 13 | 292 | 0.0 | 0.0 | 0.00 | 0.00 | 0.00 | 68 | 956.0 |
| 20260505004000 | 13 | 337 | 0.0 | 1.6 | 0.00 | 0.00 | 0.00 | 68 | 1090.9 |
| 20260505003500 | 13 | 315 | 0.0 | 1.6 | 0.00 | 0.00 | 0.00 | 68 | 1039.7 |
| 20260505003000 | 13 | 292 | 0.0 | 0.0 | 0.00 | 0.00 | 0.00 | 68 | 972.5 |
| 20260505002500 | 13 | 270 | 0.0 | 1.6 | 0.00 | 0.00 | 0.00 | 68 | 1001.0 |
| 20260505002000 | 13 | 292 | 0.0 | 3.2 | 0.00 | 0.00 | 0.00 | 68 | 977.1 |
| 20260505001500 | 13 | 292 | 1.6 | 3.2 | 0.00 | 0.00 | 0.00 | 67 | 1055.4 |
| 20260505001000 | 13 | 292 | 3.2 | 3.2 | 0.00 | 0.00 | 0.00 | 64 | 1061.7 |
| 20260505000859 | 13 | 292 | 0.0 | 3.2 | 0.00 | 0.00 | 0.00 | 63 | 929.8 |
| 20260505000500 | 13 | 292 | 0.0 | 0.0 | 0.00 | 0.00 | 0.00 | 63 | 1004.1 |
| 20260505000000 | 13 | 315 | 0.0 | 0.0 | 0.00 | 0.00 | 0.00 | 63 | 971.7 |
| 20260504235500 | 14 | 315 | 0.0 | 0.0 | 0.00 | 0.00 | 0.00 | 62 | 1049.7 |
| 20260504235000 | 14 | 22 | 0.0 | 0.0 | 0.00 | 0.00 | 0.00 | 62 | 1010.4 |
| 20260504234500 | 14 | 45 | 0.0 | 0.0 | 0.00 | 0.00 | 0.00 | 62 | 1013.5 |
| 20260504234047 | 14 | 67 | 0.0 | 0.0 | 0.00 | 0.00 | 0.00 | 61 | 979.6 |
| 20260504234000 | 14 | 67 | 0.0 | 0.0 | 0.00 | 0.00 | 0.00 | 61 | 979.6 |
| 20260504233559 | 14 | 112 | 0.0 | 0.0 | 0.00 | 0.00 | 0.00 | 61 | 968.5 |
| 20260504233500 | 14 | 112 | 0.0 | 0.0 | 0.00 | 0.00 | 0.00 | 60 | 965.4 |
| 20260504233000 | 15 | 90 | 0.0 | 0.0 | 0.00 | 0.00 | 0.00 | 60 | 1010.3 |
| 20260504232558 | 15 | 90 | 0.0 | 0.0 | 0.00 | 0.00 | 0.00 | 59 | 893.2 |
| 20260504232500 | 15 | 90 | 0.0 | 0.0 | 0.00 | 0.00 | 0.00 | 59 | 893.2 |
| 20260504232000 | 15 | 90 | 0.0 | 1.6 | 0.00 | 0.00 | 0.00 | 59 | 1004.1 |
| 20260504231500 | 15 | 135 | 0.0 | 0.0 | 0.00 | 0.00 | 0.00 | 58 | 1058.5 |
| 20260504231000 | 15 | 90 | 0.0 | 0.0 | 0.00 | 0.00 | 0.00 | 58 | 1090.9 |
| 20260504230500 | 15 | 135 | 0.0 | 0.0 | 0.00 | 0.00 | 0.00 | 57 | 1004.1 |
| 20260504230259 | 15 | 135 | 0.0 | 0.0 | 0.00 | 0.00 | 0.00 | 57 | 974.2 |
| 20260504230000 | 15 | 135 | 0.0 | 0.0 | 0.00 | 0.00 | 0.00 | 56 | 1007.3 |
| 20260504225500 | 15 | 135 | 0.0 | 0.0 | 0.00 | 0.00 | 0.00 | 56 | 974.8 |
| 20260504225000 | 16 | 135 | 0.0 | 1.6 | 0.00 | 0.00 | 0.00 | 55 | 994.7 |
| 20260504224500 | 16 | 135 | 0.0 | 0.0 | 0.00 | 0.00 | 0.00 | 55 | 1087.8 |
| 20260504224000 | 16 | 90 | 0.0 | 0.0 | 0.00 | 0.00 | 0.00 | 54 | 1009.6 |
| 20260504223500 | 16 | 157 | 0.0 | 0.0 | 0.00 | 0.00 | 0.00 | 54 | 994.7 |
| 20260504222959 | 16 | 112 | 0.0 | 0.0 | 0.00 | 0.00 | 0.00 | 53 | 962.3 |
| 20260504222500 | 16 | 112 | 0.0 | 0.0 | 0.00 | 0.00 | 0.00 | 53 | 965.8 |
| 20260504222000 | 16 | 112 | 0.0 | 0.0 | 0.00 | 0.00 | 0.00 | 53 | 1084.6 |
| 20260504221500 | 16 | 135 | 0.0 | 1.6 | 0.00 | 0.00 | 0.00 | 52 | 997.9 |
| 20260504221000 | 16 | 157 | 1.6 | 1.6 | 0.00 | 0.00 | 0.00 | 52 | 1051.7 |
| 20260504220500 | 17 | 180 | 0.0 | 0.0 | 0.00 | 0.00 | 0.00 | 52 | 974.8 |
| 20260504220000 | 17 | 135 | 0.0 | 0.0 | 0.00 | 0.00 | 0.00 | 51 | 1109.7 |
| 20260504215659 | 17 | 157 | 0.0 | 0.0 | 0.00 | 0.00 | 0.00 | 51 | 981.0 |
| 20260504215500 | 17 | 157 | 0.0 | 0.0 | 0.00 | 0.00 | 0.00 | 51 | 1099.0 |
| 20260504215000 | 17 | 180 | 0.0 | 1.6 | 0.00 | 0.00 | 0.00 | 50 | 1046.0 |
| 20260504214500 | 17 | 157 | 1.6 | 3.2 | 0.00 | 0.00 | 0.00 | 50 | 1087.8 |
| 20260504214000 | 17 | 135 | 3.2 | 3.2 | 0.00 | 0.00 | 0.00 | 49 | 974.8 |
| 20260504213500 | 17 | 135 | 0.0 | 0.0 | 0.00 | 0.00 | 0.00 | 49 | 933.0 |
| 20260504213000 | 18 | 135 | 0.0 | 0.0 | 0.00 | 0.00 | 0.00 | 49 | 1010.4 |
| 20260504212500 | 18 | 292 | 0.0 | 0.0 | 0.00 | 0.00 | 0.00 | 48 | 942.9 |
| 20260504212359 | 18 | 292 | 0.0 | 1.6 | 0.00 | 0.00 | 0.00 | 48 | 998.8 |
| 20260504212000 | 18 | 315 | 0.0 | 3.2 | 0.00 | 0.00 | 0.00 | 48 | 983.4 |
| 20260504211500 | 18 | 292 | 1.6 | 3.2 | 0.00 | 0.00 | 0.00 | 48 | 1063.0 |
| 20260504211001 | 18 | 315 | 1.6 | 3.2 | 0.00 | 0.00 | 0.00 | 48 | 933.2 |
| 20260504210501 | 18 | 292 | 3.2 | 4.8 | 0.00 | 0.00 | 0.00 | 48 | 968.9 |
| 20260504210000 | 18 | 315 | 3.2 | 4.8 | 0.00 | 0.00 | 0.00 | 47 | 936.1 |
| 20260504205500 | 18 | 315 | 3.2 | 4.8 | 0.00 | 0.00 | 0.00 | 47 | 1048.3 |
| 20260504205059 | 18 | 337 | 3.2 | 4.8 | 0.00 | 0.00 | 0.00 | 47 | 1042.8 |
| 20260504205000 | -29 | 337 | 3.2 | 4.8 | 0.00 | 0.00 | 0.00 | 47 | 914.2 |
| 20260504204500 | 18 | 337 | 3.2 | 6.4 | 0.00 | 0.00 | 0.00 | 47 | 972.9 |
| 20260504204000 | 19 | 337 | 3.2 | 8.0 | 0.00 | 0.00 | 0.00 | 47 | 1046.9 |
| 20260504203500 | 19 | 292 | 4.8 | 6.4 | 0.00 | 0.00 | 0.00 | 46 | 974.6 |
| 20260504203000 | 19 | 292 | 4.8 | 6.4 | 0.00 | 0.00 | 0.00 | 46 | 1065.6 |
| 20260504202500 | 19 | 315 | 4.8 | 4.8 | 0.00 | 0.00 | 0.00 | 45 | 1058.6 |
| 20260504202001 | 19 | 292 | 3.2 | 4.8 | 0.00 | 0.00 | 0.00 | 45 | 1045.9 |
| 20260504201800 | 19 | 315 | 3.2 | 4.8 | 0.00 | 0.00 | 0.00 | 45 | 1097.2 |
| 20260504201500 | 19 | 292 | 4.8 | 6.4 | 0.00 | 0.00 | 0.00 | 45 | 1094.0 |
| 20260504201000 | 19 | 292 | 4.8 | 6.4 | 0.00 | 0.00 | 0.00 | 45 | 966.5 |
| 20260504200500 | 19 | 315 | 6.4 | 8.0 | 0.00 | 0.00 | 0.00 | 44 | 969.1 |
| 20260504200000 | 20 | 315 | 6.4 | 6.4 | 0.00 | 0.00 | 0.00 | 44 | 1002.5 |
| 20260504195500 | 20 | 270 | 6.4 | 8.0 | 0.00 | 0.00 | 0.00 | 43 | 1087.8 |
| 20260504195001 | 20 | 292 | 6.4 | 6.4 | 0.00 | 0.00 | 0.00 | 43 | 1045.9 |
| 20260504194500 | 20 | 292 | 1.6 | 9.7 | 0.00 | 0.00 | 0.00 | 42 | 1010.4 |
| 20260504194000 | 20 | 270 | 0.0 | 9.7 | 0.00 | 0.00 | 0.00 | 41 | 1008.8 |
| 20260504193501 | 20 | 270 | 6.4 | 12.9 | 0.00 | 0.00 | 0.00 | 40 | 911.0 |
| 20260504193001 | 20 | 202 | 4.8 | 8.0 | 0.00 | 0.00 | 0.00 | 39 | 1013.5 |
| 20260504192501 | 21 | 180 | 3.2 | 6.4 | 0.00 | 0.00 | 0.00 | 38 | 1052.2 |
| 20260504192001 | 21 | 202 | 6.4 | 8.0 | 0.00 | 0.00 | 0.00 | 38 | 1016.7 |
| 20260504191509 | 21 | 202 | 4.8 | 9.7 | 0.00 | 0.00 | 0.00 | 37 | 1007.3 |
| 20260504191501 | 21 | 202 | 4.8 | 9.7 | 0.00 | 0.00 | 0.00 | 37 | 1007.3 |
| 20260504191200 | 21 | 202 | 6.4 | 11.3 | 0.00 | 0.00 | 0.00 | 37 | 926.7 |
| 20260504191001 | 21 | 157 | 6.4 | 12.9 | 0.00 | 0.00 | 0.00 | 37 | 1090.9 |
| 20260504190510 | 21 | 180 | 6.4 | 9.7 | 0.00 | 0.00 | 0.00 | 37 | 1052.2 |
| 20260504190501 | 21 | 180 | 6.4 | 9.7 | 0.00 | 0.00 | 0.00 | 37 | 1052.2 |
| 20260504190001 | 21 | 202 | 8.0 | 9.7 | 0.00 | 0.00 | 0.00 | 36 | 1052.2 |
| 20260504185501 | 21 | 180 | 3.2 | 9.7 | 0.00 | 0.00 | 0.00 | 36 | 920.4 |
| 20260504185001 | 21 | 180 | 4.8 | 9.7 | 0.00 | 0.00 | 0.00 | 36 | 962.3 |
| 20260504184501 | 21 | 202 | 6.4 | 9.7 | 0.00 | 0.00 | 0.00 | 35 | 1052.2 |
| 20260504184001 | 21 | 202 | 4.8 | 4.8 | 0.00 | 0.00 | 0.00 | 35 | 974.6 |
| 20260504183900 | 21 | 202 | 1.6 | 4.8 | 0.00 | 0.00 | 0.00 | 35 | 1039.6 |
| 20260504183501 | 22 | 225 | 4.8 | 4.8 | 0.00 | 0.00 | 0.00 | 35 | 974.8 |
| 20260504183001 | 22 | 270 | 1.6 | 1.6 | 0.00 | 0.00 | 0.00 | 34 | 952.9 |
| 20260504182501 | 22 | 270 | 0.0 | 3.2 | 0.00 | 0.00 | 0.00 | 34 | 1046.0 |
| 20260504182007 | 22 | 270 | 0.0 | 6.4 | 0.00 | 0.00 | 0.00 | 33 | |
| 20260504182001 | 22 | 270 | 0.0 | 6.4 | 0.00 | 0.00 | 0.00 | 33 | 1001.0 |
| 20260504181501 | 22 | 180 | 4.8 | 6.4 | 0.00 | 0.00 | 0.00 | 32 | 1081.5 |
| 20260504181001 | 23 | 180 | 3.2 | 6.4 | 0.00 | 0.00 | 0.00 | 32 | 1055.4 |
| 20260504180600 | 23 | 180 | 4.8 | 6.4 | 0.00 | 0.00 | 0.00 | 32 | 973.4 |
| 20260504180501 | 23 | 202 | 6.4 | 6.4 | 0.00 | 0.00 | 0.00 | 32 | 881.8 |
| 20260504180001 | 23 | 180 | 6.4 | 9.7 | 0.00 | 0.00 | 0.00 | 31 | 971.7 |
| 20260504175501 | 23 | 202 | 6.4 | 11.3 | 0.00 | 0.00 | 0.00 | 31 | 1100.3 |
| 20260504175001 | 24 | 202 | 9.7 | 9.7 | 0.00 | 0.00 | 0.00 | 30 | 932.9 |
| 20260504174501 | 25 | 202 | 4.8 | 6.4 | 0.00 | 0.00 | 0.00 | 29 | 1007.3 |
| 20260504174001 | 25 | 202 | 6.4 | 11.3 | 0.00 | 0.00 | 0.00 | 29 | 1042.8 |
| 20260504173501 | 25 | 202 | 4.8 | 8.0 | 0.00 | 0.00 | 0.00 | 29 | 977.9 |
| 20260504173300 | 25 | 202 | 3.2 | 9.7 | 0.00 | 0.00 | 0.00 | 29 | 1001.0 |
| 20260504173001 | 25 | 202 | 8.0 | 9.7 | 0.00 | 0.00 | 0.00 | 29 | 968.6 |
| 20260504172501 | 26 | 202 | 9.7 | 14.5 | 0.00 | 0.00 | 0.00 | 28 | 1013.5 |
| 20260504172001 | 26 | 202 | 6.4 | 14.5 | 0.00 | 0.00 | 0.00 | 28 | 1024.0 |
| 20260504171501 | 26 | 225 | 11.3 | 16.1 | 0.00 | 0.00 | 0.00 | 28 | 1013.5 |
| 20260504171001 | 26 | 225 | 6.4 | 14.5 | 0.00 | 0.00 | 0.00 | 28 | 968.5 |
| 20260504170501 | 26 | 225 | 11.3 | 20.9 | 0.00 | 0.00 | 0.00 | 27 | 1058.5 |
| 20260504151001 | 30 | 180 | 9.7 | 22.5 | 0.00 | 0.00 | 0.00 | 25 | 1058.5 |
| 20260504150501 | 30 | 180 | 3.2 | 19.3 | 0.00 | 0.00 | 0.00 | 25 | 960.9 |
| 20260504141001 | 30 | 292 | 8.0 | 22.5 | 0.00 | 0.00 | 0.00 | 23 | 1004.1 |
| 20260504140501 | 30 | 202 | 14.5 | 27.4 | 0.00 | 0.00 | 0.00 | 23 | 1010.4 |
| 20260504130501 | 30 | 270 | 9.7 | 27.4 | 0.00 | 0.00 | 0.00 | 23 | 965.4 |